STARLINK-31815, 59801

Orbit data source: Space-Track

STARLINK-31815, 59801 is a payload satellite owned by SpaceX/Seattle (US) in LEO that was launched on Sat, 18 May 2024 UTC via an FALCON 9 launch vehicle from the Air Force Eastern Test Range (AFETR). Payload-class satellites include a variety of spacecraft equipped with specific instruments for various scientific and technological missions. These include communications satellites like Starlink; space stations such as the ISS; scientific satellites like the Hubble; Earth observation satellites from companies like Planet Labs, Umbra, and HawkEye 360; GPS; miniature CubeSats for education and research; and military/defense satellites.

Loading next visibility...
Identifier
59801, 2024-093V
Orbit
LEO
Country
Flag of USUS
Related business
Manufacturer
SpaceX/Seattle
Mission
Operational Commercial Communications
Bus & Motor
STARLINK V2M, Unknown motor
Mass
730 kg wet, ~700 kg dry
Launch date (UTC)
2024-05-18 (2 years ago)
Launch vehicle
FALCON 9
Launch site
Air Force Eastern Test Range (AFETR)
Object type
Payload
Rocket body
Debris
Shape & HBR
Box + 2 Pan, 17.7 m
Radar Cross Section
33.884 m², Large (>1 m²)

Expand to show TLE details & history
Last TLE update: 1 day ago

TLE from 1 day ago
0 STARLINK-31815
1 59801U 24093V   26073.00423632 -.00001854  00000-0 -57911-4 0  9996
2 59801  42.9985 184.6654 0001040 285.2054  74.8683 15.27565786103357
Epoch: 2026-03-14T00:06Z
TLE epoch observation values (Epoch: 2026-03-14T00:06:06.018Z)
Latitude
0.00003°
Longitude
11.50871°
Altitude
482.681 km
Speed
7.626 km/s
True Right ascension
12h 18m 39s
True Declination
0° 00' 00"
Sunlit
Object was in full shadow at epoch
Visualization orbit readout
Latitude
Unknown
Longitude
Unknown
Altitude
Unknown
Speed
Unknown
Apparent Right ascension
Unknown
Apparent Declination
Unknown
Sunlit
N/A
Visualization observer readout
Local Sidereal Time
05:36:12
Azimuth
Unknown
Elevation
Unknown
Doppler factor
Unknown
Orbital elements
Apogee altitude
485.751 km
Perigee altitude
484.323 km
Semi-major axis
6,863.174 km
Eccentricity
0.0001
Inclination
42.9985°
RAAN
184.6654°
Arg. of periapsis
285.2054°
True anomaly
74.8798°
Mean anomaly
74.8683°
Eccentric anomaly
74.87405°
Mean motion
3.81729 °/min
Orbital period
94.31 mins
BSTAR
-0.000057911
Loading maneuver chart data...
Computing Atmospheric mass density...
Loading historical data...
Loading historical data...
Loading historical data...
Loading historical data...
Loading historical data...
Loading historical data...
Loading historical data...

Documentation

Showing up to 5 results
|